www.pogodaiklimat.ru

Погода и климат >> Архив погоды >> Индонезия >> Чилачап


ПОГОДА в Чилачапе

  • Прогноз погоды в Чилачапе
  • Монитор погоды в Чилачапе

АРХИВ ПОГОДЫ в Чилачапе

Время (UTC), дата Ветер
(напр.,м/с)
 
Видим.   Явления Облачность Т
(С)
Тd
(С)
f
(%)
Тe
(С)
Тes
(С)
Комфортность P
(гПа)
Po
(гПа)
Тmin
(С)
Tmax
(С)
R
(мм)
R24
(мм)
S
(см)
15 11.04 штиль 0 9000 м 9/4 600 м
[Cu med, cong Ac As Ci fib]
+27.7 +24.0 80 +38 +38 очень
душно
1011.0 1010.3
18 11.04 штиль 0 7000 м 8/3 600 м
[Cu med, cong Ac As Ci fib]
+27.0 +24.0 84 +37 +37 очень
душно
1009.3 1008.6
21 11.04 штиль 0 7000 м 8/4 600 м
[Sc Ac As Ci fib]
+26.0 +24.4 91 +36 +36 очень
душно
1008.9 1008.1
00 12.04 штиль 0 7000 м 5/3 500 м
[Cu med, cong Ac trans]
+26.4 +24.1 87 +37 +38 очень
душно
1010.3 1009.6 +25.8
03 12.04 В 2 12 км 6/3 540 м
[Cu med, cong Ac trans Ci fib]
+32.2 +24.5 64 +45 +55 опасность
перегрева
1010.9 1010.2
06 12.04 ЮВ 2 12 км 6/3 540 м
[Cu med, cong Ac lent Ci fib]
+32.2 +24.1 62 +44 +54 опасность
перегрева
1008.7 1008.0
09 12.04 ЮВ 3 12 км 5/3 600 м
[Cb cap As trans Ci fib]
+31.2 +25.0 70 +45 +47 опасность
перегрева
1008.1 1007.4
12 12.04 ЮВ 1 10 км 9/3 600 м
[Cu med, cong As trans Ci fib]
+29.2 +24.9 78 +42 +42 опасность
перегрева
1009.9 1009.2 +32.6
15 12.04 В 1 10 км 6/3 600 м
[Cu med, cong As trans Ci fib]
+29.2 +24.9 78 +42 +42 опасность
перегрева
1011.4 1010.6
18 12.04 З 1 6000 м 5/3 600 м
[Sc As trans Ci fib]
+27.3 +24.7 86 +39 +39 очень
душно
1011.1 1010.4
21 12.04 З 2 6000 м гроза без осадков 5/3 600 м
[Cb cap As trans Ci fib]
+26.5 +24.6 89 +37 +37 очень
душно
1010.5 1009.8
00 13.04 штиль 0 8000 м в посл. час дождь 9/5 600 м
[Cu Sc Ac As Cs]
+26.0 +25.2 95 +37 +38 очень
душно
1012.3 1012.6 +25.4 21
03 13.04 В 2 10 км 8/5 600 м
[Cu Sc Ac As Ci fib]
+29.0 +25.5 81 +43 +48 опасность
перегрева
1012.0 1011.3
06 13.04 Ю 2 10 км 5/3 600 м
[Cu Sc Ac trans Ci fib]
+32.0 +23.8 62 +43 +54 опасность
перегрева
1009.5 1008.8
09 13.04 Ю 2 9000 м 8/4 600 м
[Cb cap As op Ci fib]
+29.8 +24.9 75 +43 +44 опасность
перегрева
1009.0 1008.2
12 13.04 штиль 0 8000 м 8/3 600 м
[Cu med, cong Ac As Ci fib]
+28.6 +25.4 83 +42 +42 опасность
перегрева
1010.9 1010.2 +32.0
15 13.04 штиль 0 8000 м 9/3 600 м
[Cu med, cong Ac As Ci fib]
+28.0 +25.7 87 +41 +41 опасность
перегрева
1012.7 1012.0
18 13.04 штиль 0 6000 м 8/4 300 м
[Cb cap Ac As Ci fib]
+26.6 +25.2 92 +38 +38 очень
душно
1011.7 1011.0
21 13.04 штиль 0 6000 м 6/1 600 м
[Cu med, cong Ac As Ci fib]
+26.2 +24.8 92 +37 +37 очень
душно
1010.8 1010.1
00 14.04 штиль 0 8000 м 8/3 600 м
[Cu med, cong Ac As Ci fib]
+26.4 +25.0 92 +38 +39 очень
душно
1012.1 1011.4 +26.0
03 14.04 В 1 10 км в посл. час гроза 6/4 600 м
[Cu med, cong Ac As Ci fib]
+31.0 +25.6 73 +46 +55 опасность
перегрева
1012.8 1012.1
06 14.04 ЮВ 3 12 км 5/3 600 м
[Cu med, cong As trans Ci fib]
+31.8 +25.7 70 +47 +56 опасность
перегрева
1009.9 1009.2
09 14.04 Ю 3 12 км 5/4 570 м
[Cb cap Ac trans Ci fib]
+31.2 +24.6 68 +44 +46 опасность
перегрева
1008.2 1007.5
12 14.04 штиль 0 6000 м 9/1 570 м
[Cu med, cong Ac As]
+29.2 +24.0 74 +41 +41 опасность
перегрева
1010.5 1009.8 +32.4
15 14.04 штиль 0 6000 м 9/3 570 м
[Sc As op]
+29.2 +24.9 78 +42 +42 опасность
перегрева
1011.7 1011.0
18 14.04 штиль 0 6000 м 8/1 570 м
[Sc Ac trans Ci fib]
+27.8 +25.6 88 +41 +41 опасность
перегрева
1010.2 1009.8
21 14.04 штиль 0 6000 м 8/1 570 м
[Sc Ac trans Ci fib]
+26.7 +25.2 91 +38 +38 очень
душно
1009.5 1008.8
00 15.04 штиль 0 8000 м гроза без осадков 6/4 570 м
[Cb cap Ac trans Ci fib]
+27.2 +25.3 89 +39 +41 очень
душно
1011.3 1010.6 +24.4
03 15.04 ЮВ 2 12 км 6/3 600 м
[Cu med, cong Ac As Ci fib]
+31.9 +25.2 68 +46 +55 опасность
перегрева
1012.1 1011.4
06 15.04 ЮВ 3 12 км 5/3 600 м
[Cu med, cong Ac lent Ci fib]
+32.4 +25.2 66 +46 +55 опасность
перегрева
1009.6 1008.8
09 15.04 ЮВ 3 10 км 4/1 600 м
[Cu Sc Ac trans Ci fib]
+32.0 +25.9 70 +47 +49 опасность
перегрева
1008.0 1007.2
12 15.04 штиль 0 6000 м 9/3 600 м
[Cu Sc Ac trans Ci fib]
+29.6 +25.6 79 +44 +44 опасность
перегрева
1010.3 1009.6 +33.0
15 15.04 штиль 0 6000 м 9/4 600 м
[Cu Sc Ac trans Ci fib]
+29.0 +26.1 84 +44 +44 опасность
перегрева
1011.6 1010.9
18 15.04 штиль 0 5000 м гроза без осадков 10/5 450 м
[Cb cap As op]
+27.1 +25.6 92 +40 +40 очень
душно
1010.7 1010.0 0.0
21 15.04 штиль 0 5000 м в посл. час дождь {гроза} 5/4 570 м
[Sc As op]
+26.5 +25.1 92 +38 +38 очень
душно
1010.1 1009.3 0.7
00 16.04 штиль 0 7000 м {гроза, дождь} 6/3 570 м
[Cu med, cong Ac As Ci fib]
+26.2 +24.8 92 +37 +39 очень
душно
1011.5 1010.7 +26.0 0.7
03 16.04 С 2 10 км 6/4 600 м
[Cu med, cong Ac As Ci fib]
+30.3 +25.2 74 +44 +52 опасность
перегрева
1012.5 1011.8
06 16.04 Ю 3 10 км 6/4 600 м
[Cb calv Ac As Ci fib]
+32.2 +25.1 66 +46 +54 опасность
перегрева
1009.2 1008.5
09 16.04 Ю 2 10 км гроза без осадков 9/5 600 м
[Cb calv Ac As Ci fib]
+30.2 +25.6 76 +44 +45 опасность
перегрева
1009.1 1008.4
12 16.04 С 3 5000 м гроза, ливневой дождь 10/6 600 м
[Cb calv Ac As]
+26.5 +25.0 91 +38 +38 очень
душно
1011.4 1010.7 +32.6 0.4
15 16.04 СЗ 2 6000 м в посл. час дождь {гроза} 10/5 600 м
[Cu Sc Ac As Ci fib]
+26.0 +24.9 94 +37 +37 очень
душно
1011.8 1011.1 2
18 16.04 штиль 0 6000 м {дождь} 10/4 600 м
[Cu Sc Ac As]
+25.6 +24.8 95 +36 +36 очень
душно
1010.8 1010.1 2
21 16.04 штиль 0 6000 м 8/4 600 м
[Cu Sc Ac trans Ci fib]
+25.4 +24.0 92 +35 +35 очень
душно
1010.0 1009.3
00 17.04 штиль 0 7000 м 4/1 600 м
[Cu med, cong Ci fib]
+25.8 +24.4 92 +36 +38 очень
душно
1011.6 1010.9 +25.0 2
03 17.04 З 1 12 км 4/3 600 м
[Cu med, cong Ci fib]
+31.2 +25.9 73 +46 +59 опасность
перегрева
1011.9 1011.2
06 17.04 ЮВ 2 12 км 4/3 600 м
[Cb cap Ci fib]
+32.0 +26.2 71 +48 +60 опасность
перегрева
1009.7 1009.0
09 17.04 ЮВ 4 10 км гроза без осадков 6/6 600 м
[Cb cap Ci fib]
+31.6 +25.7 71 +47 +48 опасность
перегрева
1007.9 1007.2
12 17.04 штиль 0 6000 м слаб. дождь {гроза} 10/9 500 м
[Cb cap As op]
+26.7 +24.9 90 +38 +38 очень
душно
1010.1 1009.4 +32.4 14
15 17.04 штиль 0 6000 м в посл. час гроза {дождь} 9/6 500 м
[Cb cap As op]
+26.9 +25.4 92 +39 +39 очень
душно
1011.6 1010.9 0.0
18 17.04 штиль 0 6000 м гроза, ливневой дождь 10/8 500 м
[Cb cap As op]
+27.0 +25.9 94 +40 +40 очень
душно
1010.5 1009.8 3
21 17.04 штиль 0 6000 м в посл. час гроза {дождь} 8/5 500 м
[Cb cap As op]
+26.8 +25.7 94 +40 +40 очень
душно
1009.3 1008.5 0.0
00 18.04 штиль 0 7000 м осадки на расстоянии 10/6 600 м
[Sc Ac As]
+26.0 +24.1 89 +36 +36 очень
душно
1011.0 1010.3 +25.5 16
03 18.04 Ю 1 10 км 9/5 600 м
[Cu Sc Ac As Ci fib]
+29.6 +25.8 80 +44 +50 опасность
перегрева
1011.7 1011.0
06 18.04 ЮВ 3 12 км 10/4 600 м
[Cu med, cong Ac As Ci fib]
+31.2 +26.3 75 +47 +52 опасность
перегрева
1009.3 1008.6
09 18.04 ЮВ 3 12 км 9/4 600 м
[Cu Sc Ac As Ci fib]
+31.2 +26.4 76 +48 +49 опасность
перегрева
1007.7 1007.0
12 18.04 В 2 6000 м зарница 9/5 600 м
[Cb cap As op Ci fib]
+29.9 +25.7 78 +44 +44 опасность
перегрева
1009.6 1008.9 +32.4

 

Местоположение метеостанции Чилачап (Индонезия): широта -7.73 долгота 109.01 высота над уровнем моря 6 м.

В архиве по умолчанию представлена погода в Чилачапе за последнюю неделю. Архивные данные за месяц целиком и за предыдущие месяцы, начиная с января 2011 года, Вы можете получить, выбрав интересующий диапазон дат из раскрывающегося списка и нажав кнопку "Ввод!".


*Определитесь, кто Вы:
робот инопланетянин человек

Внимание! Время в таблицах - всемирное. Для получения местного времени необходимо прибавить поправку, которая равна 7 ч.

Смотрите также архив погоды в соседних городах и на ближайших метеорологических станциях:

Погода в Тегале (Индонезия) (99 км)
Погода в Сиребоне (Индонезия) (137 км)
Погода в Аэропорту Ахмад Яни (Индонезия) (173 км)
Погода в Семаранге (Индонезия) (176 км)
Погода в Бандунге (Индонезия) (183 км)
Погода в Цитеко (Индонезия) (257 км)
Погода в Джакарте (Индонезия) (296 км)
Погода в Джакарта порту (Индонезия) (298 км)
Погода в Чуруге (Индонезия) (309 км)
Погода в Аэропорту Сукарно-Хатта (Индонезия) (316 км)

Пояснения к столбцам:

Ветер - указаны скорость ветра в м/с - средняя за 10 мин, порывы в срок и между сроками (в фигурных скобках) и направление, откуда дует ветер: С - северный, СВ - северо-восточный, В - восточный, ЮВ - юго-восточный, Ю - южный, ЮЗ - юго-западный, З - западный, СЗ - северо-западный.
Видимость - горизонтальная дальность видимости в метрах или километрах. При видимости от 1 до 10 км при отсутствии осадков обычно наблюдается дымка, при ухудшении видимости до 1 км и менее - туман. В сухую погоду видимость может ухудшаться дымом, пылью или мглою.
Явления - указаны атмосферные явления, наблюдавшиеся в срок или в последний час перед сроком; фигурными скобками обозначены явления, наблюдавшиеся между сроками (за 1-3 часа до срока); квадратными скобками обозначены град или гололедные отложения с указанием их диаметра в мм.
Облачность - указаны через наклонную черту общая и нижняя облачность в баллах и высота нижней границы облаков в метрах; квадратными скобками обозначены формы облаков: Ci - перистые, Cs - перисто-слоистые, Cc - перисто-кучевые, Ac - высококучевые, As - высокослоистые, Sc - слоисто-кучевые, Ns - слоисто-дождевые, Cu - кучевые, Cb - кучево-дождевые. Подробнее классификацию облаков см. в Атласе облаков (PDF).
T - Температура воздуха - температура, измеренная на высоте 2 м над землей.
Td - Температура точки росы - температура, при понижении до которой содержащийся в воздухе водяной пар достигнет насыщения.
f - Относительная влажность воздуха - влажноcть воздуха, измеренная на высоте 2 м над землей.
Te - Эффективная температура - температура, которую ощущает одетый по сезону человек в тени. Характеристика душности погоды. При расчете учитывается влияние влажности воздуха и скорости ветра на теплоощущения человека.
Tes - Эффективная температура на солнце - температура, которую ощущает человек, с поправкой на солнечный нагрев. Характеристика знойности погоды. Зависит от высоты солнца над горизонтом, облачности и скорости ветра. Ночью, в пасмурную погоду, а также при ветре 12 м/с и более поправка равна нулю.
P - Атмосферное давление - приведенное к уровню моря атмосферное давление.
Po - Атмосферное давление - измеренное на уровне метеостанции атмосферное давление.
Tmin - Минимальная температура - минимум температуры воздуха на высоте 2 м над землей.
Tmax - Максимальная температура - максимум температуры воздуха на высоте 2 м над землей.
R - Количество осадков - Количество выпавших осадков за период времени, мм. При наведении курсора мыши на число - период времени, за который выпало указанное количество осадков.
R24 - Количество осадков - Количество выпавших осадков за 24 часа, мм.
S - Снежный покров - Высота снежного покрова, см. При наведении курсора мыши на число - состояние снежного покрова и степень покрытия местности в баллах.